Location: Alta
(39.2070°N, 120.8111°W)
Time: 10:41:01
(UTC+00:00)

NANOSAT C BR1 - Pass Details

Date: 03 April 2023
Orbit: 573 x 586 km, 98.0° (Epoch: 09 June)

Event Time Altitude Azimuth Distance (km) Brightness Sun altitude
Rises 11:15:27 0° 4° (N) 2,802 ? -27.8°
Reaches altitude 10° 11:17:43 10° 356° (N) 1,896 ? -27.4°
Enters shadow 11:19:08 20° 345° (NNW) 1,377 ? -27.2°
